User: anonymous   Login
Location: Strawberry
(45.6646°N, 111.9596°W)
Time: 21:10:25
(UTC+00:00)
Language:

A-11 Canister half - Orbit

View from above orbital plane
View from above orbital plane
View from above satellite
View from above satellite

Ground track
Ground track

The orbit data is extracted from the following two-line orbital elements,

1 00053U 60009E   22273.50921419 -.00000020  00000-0  64319-3 0  9999
2 00053  47.2755 203.7547 0100176  28.0387 332.5750 12.17280235770281
Epoch (UTC): 30 September 2022 12:13:16
Eccentricity: 0.0100176
inclination: 47.2755°
perigee height: 1524 km
apogee height: 1684 km
right ascension of ascending node: 203.7547°
argument of perigee: 28.0387°
revolutions per day: 12.17280235
mean anomaly at epoch: 332.5750°
orbit number at epoch: 77028

The dashed part of the orbit path shows where the satellite is in the earth's shadow,  

DLR